Airfield :
LOGIN :

Register | Disclaimer

   EN    FR    IT 

 










Legend :    VFR   Marginal VFR   IFR   Intensive IFR   Very Intensive IFR
Visi :
Ceiling :
>= 8 km
>= 3000ft
5 to 8 km
1000 to 3000 ft
1500m to 5 km
500 to 1000 ft
800 to 1500m
200 to 500 ft
< 800m
< 200 ft
Symbols :   Thunderstorms  Fog  Heavy snow  Heavy precipitations  Wind > 20 kt
SIGMETs :     Misc.  Thunderstorms  Icing  Turbulence  Mountain Waves  Volcanic Ashes







- Airport Elevation : 117 ft
- IATA code : NWI
- Download approach charts


EGSH - Norwich

CURRENT METAR :
  • 121620Z 11004KT 9999 FEW036 SCT045 05/01 Q1023 NOSIG

EXPIRED METARs :
  • 121550Z 10005KT 9999 FEW036 SCT045 05/01 Q1023 NOSIG
  • 121520Z 15005KT 9999 BKN042 06/M00 Q1023 NOSIG
  • 121450Z 16006KT 120V200 9999 BKN045 07/M00 Q1023 NOSIG
  • 121420Z 16008KT 9999 BKN045 07/M00 Q1023 NOSIG
  • 121350Z 16009KT 9999 SCT045 08/M00 Q1023 NOSIG

TAF TAF EGSH
Valid from the 12 at 15:00 until the 13 at 00:00 UTC


121359Z 1215/1224 14004KT 9999 FEW045
ATIS : +44 1603 420 640
No reported NOTAMs for that airfield.



MET'MAP, your aeronautical weather chart ! - Copyright ORBIFLY December 2007 - Disclaimer

ORBIFLY MET'MAP TEAM :

Programming & Development : Alexandra Zaïnal
Concept & Development : Baudouin d'Aumeries
Co-Development & Prog : Marc-Olivier Méhu
Technical & hardware support : Manuel Goepfert

Contact : metmap@orbifly.com




SOURCES & CREDITS :

   NOAA